Location: Camp Crooked Creek
(37.9149°N, 85.6607°W)
Time: 06:15:03
(UTC-04:00)

Amateur Radio Satellites - All Passes

Search period start: 28 September 2016 05:45
Search period end: 29 September 2016 05:45
Location: Camp Crooked Creek, 37.9149°N, 85.6607°W

Satellite Date Start Highest point End Downlink Frequencies (MHz)
Time Altitude Azimuth
ITAMSAT 1 28 Sep 05:47:14 05:51:38 28° 293° (WNW) 05:56:01 435.822/435.867
STARS 28 Sep 05:52:00 05:56:15 49° 260° (W) 06:00:32 437.465
AO-7 28 Sep 05:58:02 06:06:18 75° 290° (WNW) 06:14:33 29.400- 29.500
AIST 2 28 Sep 06:03:54 06:06:26 16° 314° (NW) 06:09:01 435.215
Cosmos 2504 28 Sep 06:07:29 06:14:25 42° 283° (WNW) 06:21:10 435.465 / 435.565
CUBESAT XI-V 28 Sep 06:13:58 06:18:39 78° 258° (WSW) 06:23:23 437.345
HORYU 2 28 Sep 06:31:33 06:35:47 43° 99° (E) 06:40:02 437.375
BRITE-PL 28 Sep 06:41:48 06:46:00 31° 95° (E) 06:49:56 437.365/2234.400
NOAA 18 28 Sep 06:52:54 06:54:47 12° 91° (E) 06:56:39 137.9125
AIST 1 28 Sep 06:57:19 07:01:20 34° 282° (WNW) 07:05:21
DANDE 28 Sep 07:02:30 07:10:01 35° 70° (ENE) 07:17:00 436.750
CUSAT 1 28 Sep 07:12:54 07:20:39 81° 80° (E) 07:26:59 437.405
AO-85 28 Sep 07:14:04 07:18:11 87° 240° (WSW) 07:22:03 145.980
LilacSat-2 28 Sep 07:15:48 07:18:54 23° 95° (E) 07:22:02 437.200
O/OREOS (USA 219) 28 Sep 07:16:01 07:19:12 19° 100° (E) 07:22:26 437.305
STRAND 1 28 Sep 07:22:04 07:26:17 27° 67° (ENE) 07:30:30 437.568
RS-15 28 Sep 07:24:17 07:36:00 52° 250° (WSW) 07:47:23 29.354- 29.394
NOAA 15 28 Sep 07:30:28 07:35:34 45° 100° (E) 07:40:35 137.62
PCSat 28 Sep 07:31:19 07:33:05 11° 318° (NW) 07:34:50 145.827
Cubesat XI-IV 28 Sep 07:47:18 07:52:33 53° 100° (E) 07:57:47 437.490
CUTE-I 28 Sep 07:47:22 07:52:38 54° 100° (E) 07:57:52 437.470
GONETS M04 28 Sep 07:51:26 07:54:31 12° 75° (ENE) 07:57:35
AO-7 28 Sep 07:53:12 07:57:42 16° 310° (NW) 08:02:12 29.400- 29.500
GOMX 1 28 Sep 08:07:49 08:12:12 71° 284° (WNW) 08:16:21 467.674
HORYU 2 28 Sep 08:09:10 08:11:58 17° 295° (WNW) 08:14:47 437.375
CANX-2 28 Sep 08:17:31 08:18:10 10° 90° (E) 08:18:49 2200.000
BRITE-PL 28 Sep 08:20:35 08:24:17 23° 293° (WNW) 08:27:47 437.365/2234.400
DOVE 4 28 Sep 08:27:48 08:31:59 76° 102° (ESE) 08:36:07 437.250
NOAA 18 28 Sep 08:30:30 08:35:58 79° 286° (WNW) 08:41:27 137.9125
HO-68 28 Sep 08:40:29 08:46:22 27° 95° (E) 08:52:11 435.675
DANDE 28 Sep 08:44:58 08:53:02 52° 269° (W) 09:00:24 436.750
LilacSat-2 28 Sep 08:50:08 08:53:05 21° 290° (WNW) 08:56:01 437.200
O/OREOS (USA 219) 28 Sep 08:54:06 08:58:19 37° 297° (WNW) 09:02:34 437.305
CUSAT 1 28 Sep 08:57:04 09:01:23 17° 281° (W) 09:05:19 437.405
STRAND 1 28 Sep 09:00:44 09:05:17 33° 263° (W) 09:09:53 437.568
CUBEBUG 2 28 Sep 09:07:59 09:09:57 13° 92° (E) 09:11:55 437.445
PRISM 28 Sep 09:08:10 09:11:42 27° 70° (ENE) 09:15:14 437.425
NOAA 15 28 Sep 09:11:03 09:14:58 22° 295° (WNW) 09:18:53 137.62
Cosmos 2499 28 Sep 09:17:06 09:23:42 41° 89° (E) 09:30:12 435.465 / 435.565
COMPASS 1 28 Sep 09:21:07 09:24:31 23° 95° (E) 09:27:54 437.405
UWE-3 28 Sep 09:25:21 09:27:27 13° 92° (E) 09:29:33 435.000/436.395/437.385
Cubesat XI-IV 28 Sep 09:28:32 09:32:11 19° 296° (WNW) 09:35:49 437.490
CUTE-I 28 Sep 09:28:36 09:32:13 19° 296° (WNW) 09:35:50 437.470
CINEMA 3 28 Sep 09:37:26 09:41:36 70° 285° (WNW) 09:45:51 145.822/145.860
GONETS M04 28 Sep 09:40:54 09:49:41 75° 94° (E) 09:58:32
CUTE 1.7 + AOD 2 28 Sep 09:48:46 09:53:04 73° 283° (WNW) 09:57:20 437.475
SEEDS 28 Sep 09:49:35 09:53:53 78° 103° (ESE) 09:58:08 437.485
CANX-2 28 Sep 09:50:07 09:54:22 60° 285° (WNW) 09:58:36 2200.000
Oscar 11 28 Sep 09:51:03 09:53:39 15° 92° (E) 09:56:15 145.826/435.025
ZACube-1 28 Sep 09:53:17 09:56:13 17° 94° (E) 09:59:09 437.345
PHONESAT 2.4 28 Sep 10:10:53 10:10:56 10° 144° (SE) 10:11:00 2401.200-2431.200
AAUSAT CUBESAT 2 28 Sep 10:11:14 10:15:26 73° 101° (ESE) 10:19:37 437.432
NOAA 18 28 Sep 10:15:39 10:15:43 10° 302° (WNW) 10:15:46 137.9125
ANTELSAT 28 Sep 10:16:23 10:19:23 19° 68° (ENE) 10:22:23 437.575/2403.000
BEESAT 2 28 Sep 10:21:10 10:23:53 17° 48° (NE) 10:26:36 435.950
HO-68 28 Sep 10:27:25 10:34:19 53° 291° (WNW) 10:41:12 435.675
TIGRISAT 28 Sep 10:36:01 10:39:42 29° 71° (ENE) 10:43:23 435.000
CUBEBUG 2 28 Sep 10:42:37 10:46:47 49° 286° (WNW) 10:51:03 437.445
PRISM 28 Sep 10:43:41 10:46:56 22° 264° (W) 10:50:13 437.425
FUNcube-1 28 Sep 10:46:01 10:50:20 66° 101° (E) 10:54:45 145.935
COMPASS 1 28 Sep 10:56:29 10:59:59 26° 290° (WNW) 11:03:28 437.405
UWE-3 28 Sep 10:59:56 11:04:06 49° 286° (WNW) 11:08:23 435.000/436.395/437.385
BEESAT 3 28 Sep 11:01:31 11:05:30 89° 92° (E) 11:09:27 437.485
JAS-2 28 Sep 11:03:29 11:06:27 13° 54° (NE) 11:09:33 435.910
Cosmos 2499 28 Sep 11:10:42 11:16:51 31° 287° (WNW) 11:22:59 435.465 / 435.565
UNISAT 6 28 Sep 11:16:05 11:20:22 87° 258° (WSW) 11:24:39 437.425
NANOSAT C BR1 28 Sep 11:21:28 11:22:58 12° 64° (ENE) 11:24:28 145.865
Oscar 11 28 Sep 11:25:51 11:29:57 41° 287° (WNW) 11:34:02 145.826/435.025
DELFI C3 28 Sep 11:27:59 11:32:02 83° 103° (ESE) 11:36:01 145.870
ZACube-1 28 Sep 11:28:34 11:32:35 37° 287° (WNW) 11:36:39 437.345
GONETS M04 28 Sep 11:40:55 11:47:23 22° 293° (WNW) 11:53:55
QB50P2 28 Sep 11:43:13 11:46:35 24° 69° (ENE) 11:49:57 145.880/145.840
PHONESAT 2.4 28 Sep 11:43:44 11:46:36 55° 158° (SSE) 11:49:29 2401.200-2431.200
HUMSAT D 28 Sep 11:45:02 11:49:15 61° 100° (E) 11:53:30 437.325/437.525
POLYITAN 1 28 Sep 11:45:26 11:48:48 24° 69° (ENE) 11:52:09 437.675
ANTELSAT 28 Sep 11:52:00 11:55:51 33° 262° (W) 11:59:43 437.575/2403.000
BEESAT 2 28 Sep 11:58:05 12:01:54 42° 244° (WSW) 12:05:40 435.950
TIGRISAT 28 Sep 12:13:11 12:16:24 21° 265° (W) 12:19:36 435.000
DUCHIFAT 1 28 Sep 12:21:54 12:25:58 54° 74° (ENE) 12:30:02 145.980
BUGSAT 1 28 Sep 12:23:22 12:26:31 22° 69° (ENE) 12:29:40 437.445
QB50P1 28 Sep 12:24:27 12:28:37 68° 75° (ENE) 12:32:48 145.935-145.965
FUNcube-1 28 Sep 12:24:54 12:26:02 11° 296° (WNW) 12:27:10 145.935
VELOX 1 28 Sep 12:31:42 12:33:39 13° 92° (E) 12:35:37 145.980
ESTCUBE 1 28 Sep 12:32:45 12:36:44 30° 97° (E) 12:40:41 437.505/2401.250
CUBEBUG 1 28 Sep 12:33:45 12:36:45 18° 94° (E) 12:39:44 437.445
POPSAT HIP 1 28 Sep 12:37:59 12:42:11 84° 257° (WSW) 12:46:24 437.405
JAS-2 28 Sep 12:43:40 12:50:02 75° 73° (ENE) 12:57:17 435.910
AIST 2 28 Sep 12:47:00 12:50:17 22° 49° (NE) 12:53:34 435.215
50 SAT 28 Sep 12:49:50 12:52:22 18° 94° (E) 12:54:54 437.505
PCSat 28 Sep 12:52:48 12:53:48 10° 41° (NE) 12:54:48 145.827
Oscar 19 28 Sep 12:53:39 12:55:36 12° 61° (ENE) 12:57:34 437.125/150
NANOSAT C BR1 28 Sep 12:54:05 12:58:11 55° 259° (W) 13:02:20 145.865
SPROUT 28 Sep 13:12:04 13:15:14 20° 95° (E) 13:18:23 437.525
QB50P2 28 Sep 13:18:47 13:22:16 25° 264° (W) 13:25:46 145.880/145.840
PHONESAT 2.4 28 Sep 13:19:52 13:22:45 51° 354° (N) 13:25:39 2401.200-2431.200
POLYITAN 1 28 Sep 13:21:00 13:24:29 25° 264° (W) 13:27:58 437.675
AISAT 28 Sep 13:22:30 13:26:48 53° 100° (E) 13:31:04 437.250
HUMSAT D 28 Sep 13:23:03 13:24:20 11° 296° (WNW) 13:25:38 437.325/437.525
UKube-1 28 Sep 13:26:57 13:30:31 25° 96° (E) 13:34:05 .
YUBILEINY 28 Sep 13:36:28 13:42:04 18° 65° (ENE) 13:47:40 435.215
Gurwin Techsat 1B 28 Sep 13:53:21 13:57:21 22° 65° (ENE) 14:01:21 435.225
AUBIESAT-1 28 Sep 13:55:45 13:58:56 44° 105° (ESE) 14:02:09 437.475
DX 1 28 Sep 13:56:02 14:00:23 75° 101° (ESE) 14:04:42 434.975-435.025
BUGSAT 1 28 Sep 13:58:16 14:01:45 26° 263° (W) 14:05:12 437.445
DUCHIFAT 1 28 Sep 14:00:57 14:01:57 11° 269° (W) 14:02:58 145.980
VELOX 1 28 Sep 14:06:08 14:10:23 51° 287° (WNW) 14:14:38 145.980
CUBEBUG 1 28 Sep 14:09:11 14:13:07 34° 289° (WNW) 14:17:00 437.445
ESTCUBE 1 28 Sep 14:09:46 14:13:23 24° 292° (WNW) 14:16:58 437.505/2401.250
50 SAT 28 Sep 14:22:48 14:25:50 25° 289° (WNW) 14:28:50 437.505
AIST 2 28 Sep 14:25:00 14:28:50 34° 246° (WSW) 14:32:38 435.215
Oscar 19 28 Sep 14:29:00 14:34:12 81° 257° (WSW) 14:39:26 437.125/150
TISAT 1 28 Sep 14:30:00 14:33:38 28° 97° (E) 14:37:15 437.305
JAS-2 28 Sep 14:31:53 14:35:55 17° 273° (W) 14:40:14 435.910
PCSat 28 Sep 14:32:53 14:38:17 64° 60° (ENE) 14:43:39 145.827
M-CUBED/EXP-1 PRIME 28 Sep 14:33:50 14:36:50 35° 292° (WNW) 14:39:51 437.505
SPROUT 28 Sep 14:47:27 14:51:11 30° 289° (WNW) 14:54:53 437.525
PHONESAT 2.4 28 Sep 14:56:07 14:59:03 62° 10° (N) 15:01:59 2401.200-2431.200
AISAT 28 Sep 15:00:40 15:02:47 13° 296° (WNW) 15:04:54 437.250
UKube-1 28 Sep 15:02:55 15:06:28 25° 291° (WNW) 15:09:58 .
AO-7 28 Sep 15:04:14 15:10:55 28° 58° (ENE) 15:17:33 29.400- 29.500
ITUPSAT 1 28 Sep 15:06:17 15:08:40 14° 92° (E) 15:11:03 437.325
SWISSCUBE 28 Sep 15:17:59 15:21:38 21° 95° (E) 15:25:15 437.505
ITAMSAT 1 28 Sep 15:23:49 15:28:40 42° 70° (ENE) 15:33:32 435.822/435.867
Cosmos 2491 28 Sep 15:24:29 15:32:49 51° 89° (E) 15:41:14 435.465 / 435.565
BEESAT 28 Sep 15:30:37 15:34:36 26° 96° (E) 15:38:33 436.000
YUBILEINY 28 Sep 15:31:15 15:39:59 86° 267° (W) 15:48:41 435.215
Gurwin Techsat 1B 28 Sep 15:31:56 15:36:57 44° 261° (W) 15:42:02 435.225
SO-50 28 Sep 15:44:53 15:49:35 53° 117° (ESE) 15:54:16 436.795
Cosmos 2504 28 Sep 16:00:06 16:07:29 59° 80° (E) 16:15:21 435.465 / 435.565
TISAT 1 28 Sep 16:05:58 16:09:06 21° 292° (WNW) 16:12:14 437.305
PCSat 28 Sep 16:17:57 16:21:05 16° 256° (WSW) 16:24:11 145.827
PHONESAT 2.4 28 Sep 16:32:21 16:35:05 33° 206° (SSW) 16:37:48 2401.200-2431.200
ITUPSAT 1 28 Sep 16:42:06 16:46:49 57° 287° (WNW) 16:51:31 437.325
MOZHAYETS 4 28 Sep 16:50:58 16:55:06 31° 97° (E) 16:59:12
AO-7 28 Sep 16:54:47 17:03:02 66° 256° (WSW) 17:11:18 29.400- 29.500
SWISSCUBE 28 Sep 16:55:04 16:59:29 37° 289° (WNW) 17:03:52 437.505
ITAMSAT 1 28 Sep 17:04:26 17:08:16 21° 266° (W) 17:12:08 435.822/435.867
AIST 1 28 Sep 17:05:47 17:09:53 44° 79° (E) 17:13:57
BEESAT 28 Sep 17:08:09 17:12:20 30° 291° (WNW) 17:16:29 436.000
KKS-1 28 Sep 17:11:29 17:15:23 30° 97° (E) 17:19:16 437.445
Cosmos 2491 28 Sep 17:22:12 17:29:53 33° 288° (WNW) 17:37:40 435.465 / 435.565
O/OREOS (USA 219) 28 Sep 17:26:37 17:30:36 28° 62° (ENE) 17:34:34 437.305
SO-50 28 Sep 17:26:47 17:30:21 20° 313° (NW) 17:33:54 436.795
HORYU 2 28 Sep 17:27:56 17:31:50 32° 70° (ENE) 17:35:46 437.375
YUBILEINY 28 Sep 17:31:08 17:35:23 15° 283° (WNW) 17:39:38 435.215
GOMX 1 28 Sep 17:38:48 17:40:42 12° 63° (ENE) 17:42:33 467.674
STARS 28 Sep 17:43:09 17:47:04 31° 98° (E) 17:50:58 437.465
BRITE-PL 28 Sep 17:49:20 17:54:29 36° 70° (ENE) 17:59:33 437.365/2234.400
Cosmos 2504 28 Sep 17:54:38 18:00:18 24° 276° (W) 18:06:14 435.465 / 435.565
CUBESAT XI-V 28 Sep 18:12:40 18:16:47 29° 96° (E) 18:20:50 437.345
NOAA 18 28 Sep 18:16:24 18:20:25 21° 64° (ENE) 18:24:24 137.9125
MOZHAYETS 4 28 Sep 18:28:22 18:32:05 24° 292° (WNW) 18:35:47
CUSAT 1 28 Sep 18:33:15 18:36:04 13° 77° (ENE) 18:39:04 437.405
AIST 1 28 Sep 18:45:10 18:47:01 13° 275° (W) 18:48:50
KKS-1 28 Sep 18:48:20 18:51:46 22° 292° (WNW) 18:55:11 437.445
NOAA 15 28 Sep 18:48:37 18:53:50 62° 73° (ENE) 18:59:05 137.62
HORYU 2 28 Sep 19:05:08 19:08:25 20° 265° (W) 19:11:43 437.375
O/OREOS (USA 219) 28 Sep 19:06:06 19:09:52 25° 258° (WSW) 19:13:37 437.305
CUTE-I 28 Sep 19:07:26 19:12:43 75° 74° (ENE) 19:18:01 437.470
Cubesat XI-IV 28 Sep 19:07:32 19:12:49 74° 74° (ENE) 19:18:08 437.490
HO-68 28 Sep 19:09:05 19:13:33 18° 57° (ENE) 19:18:00 435.675
Cosmos 2499 28 Sep 19:11:18 19:14:14 12° 64° (ENE) 19:17:14 435.465 / 435.565
GOMX 1 28 Sep 19:12:40 19:18:06 85° 257° (WSW) 19:23:19 467.674
STARS 28 Sep 19:19:57 19:23:12 21° 293° (WNW) 19:26:28 437.465
BRITE-PL 28 Sep 19:27:58 19:32:53 30° 265° (W) 19:37:47 437.365/2234.400
LilacSat-2 28 Sep 19:29:23 19:33:03 54° 260° (W) 19:36:46 437.200
DOVE 4 28 Sep 19:30:34 19:35:33 64° 75° (ENE) 19:40:17 437.250
RS-15 28 Sep 19:33:49 19:43:31 33° 104° (ESE) 19:53:34 29.354- 29.394
CUBESAT XI-V 28 Sep 19:50:11 19:54:00 25° 292° (WNW) 19:57:48 437.345
GONETS M04 28 Sep 19:53:59 20:01:48 34° 72° (ENE) 20:09:30
NOAA 18 28 Sep 19:55:25 20:00:40 49° 259° (W) 20:05:58 137.9125
DANDE 28 Sep 20:08:49 20:13:12 29° 85° (E) 20:18:41 436.750
CUSAT 1 28 Sep 20:10:24 20:16:32 86° 96° (E) 20:24:09 437.405
COMPASS 1 28 Sep 20:11:26 20:13:28 13° 66° (ENE) 20:15:30 437.405
NOAA 15 28 Sep 20:31:02 20:33:59 15° 268° (W) 20:36:57 137.62
CINEMA 3 28 Sep 20:36:57 20:41:27 84° 77° (ENE) 20:45:47 145.822/145.860
CUTE 1.7 + AOD 2 28 Sep 20:39:16 20:43:26 61° 75° (ENE) 20:47:38 437.475
SEEDS 28 Sep 20:39:23 20:43:19 41° 73° (ENE) 20:47:17 437.485
ISS 28 Sep 20:39:54 20:43:05 56° 137° (SE) 20:46:18 145.825
CANX-2 28 Sep 20:40:39 20:44:51 75° 76° (ENE) 20:49:07 2200.000
Oscar 11 28 Sep 20:46:46 20:47:00 10° 63° (ENE) 20:47:14 145.826/435.025
ZACube-1 28 Sep 20:49:43 20:50:36 11° 64° (ENE) 20:51:30 437.345
CUTE-I 28 Sep 20:51:22 20:53:16 12° 270° (W) 20:55:11 437.470
Cubesat XI-IV 28 Sep 20:51:24 20:53:23 12° 270° (W) 20:55:23 437.490
HO-68 28 Sep 20:53:10 21:00:21 85° 254° (WSW) 21:07:34 435.675
AAUSAT CUBESAT 2 28 Sep 20:59:34 21:03:24 36° 72° (ENE) 21:07:14 437.432
Cosmos 2499 28 Sep 21:00:50 21:08:29 76° 82° (E) 21:16:44 435.465 / 435.565
DOVE 4 28 Sep 21:11:24 21:13:31 13° 268° (W) 21:15:36 437.250
STRAND 1 28 Sep 21:12:13 21:17:24 86° 286° (WNW) 21:22:33 437.568
AO-85 28 Sep 21:25:24 21:30:28 50° 116° (ESE) 21:35:17 145.980
JUGNU 28 Sep 21:26:35 21:28:28 11° 173° (S) 21:30:22 437.505
CUBEBUG 2 28 Sep 21:38:46 21:42:58 76° 260° (W) 21:47:08 437.445
FUNcube-1 28 Sep 21:39:59 21:43:48 38° 73° (ENE) 21:47:38 145.935
RS-15 28 Sep 21:43:28 21:55:00 68° 305° (NW) 22:07:12 29.354- 29.394
COMPASS 1 28 Sep 21:44:32 21:48:34 47° 261° (W) 21:52:38 437.405
GONETS M04 28 Sep 21:50:28 21:58:48 49° 271° (W) 22:07:04
DANDE 28 Sep 21:50:58 21:55:43 35° 290° (WNW) 22:01:50 436.750
UWE-3 28 Sep 21:54:57 21:59:07 77° 257° (WSW) 22:03:16 435.000/436.395/437.385
CUSAT 1 28 Sep 21:55:36 21:59:46 17° 299° (WNW) 22:04:22 437.405
DELFI C3 28 Sep 22:11:55 22:15:34 35° 73° (ENE) 22:19:15 145.870
SEEDS 28 Sep 22:16:50 22:19:11 15° 268° (W) 22:21:32 437.485
ISS 28 Sep 22:17:23 22:19:48 19° 334° (NNW) 22:22:13 145.825
Oscar 11 28 Sep 22:18:14 22:22:30 69° 258° (WSW) 22:26:50 145.826/435.025
ZACube-1 28 Sep 22:22:17 22:26:22 59° 260° (W) 22:30:28 437.345
PRISM 28 Sep 22:25:50 22:29:53 54° 100° (E) 22:33:54 437.425
HUMSAT D 28 Sep 22:34:44 22:38:21 31° 71° (ENE) 22:42:00 437.325/437.525
AAUSAT CUBESAT 2 28 Sep 22:36:23 22:38:58 16° 267° (W) 22:41:35 437.432
HO-68 28 Sep 22:45:59 22:48:57 13° 271° (W) 22:51:55 435.675
Cosmos 2499 28 Sep 22:55:54 23:00:48 18° 278° (W) 23:05:53 435.465 / 435.565
AO-85 28 Sep 23:07:08 23:11:09 22° 311° (NW) 23:14:59 145.980
UNISAT 6 28 Sep 23:09:48 23:13:16 22° 95° (E) 23:16:46 437.425
JUGNU 28 Sep 23:14:11 23:16:36 12° 183° (S) 23:18:59 437.505
FUNcube-1 28 Sep 23:17:51 23:20:12 15° 267° (W) 23:22:33 145.935
CUBEBUG 1 28 Sep 23:29:00 23:31:10 14° 65° (ENE) 23:33:20 437.445
VELOX 1 28 Sep 23:29:13 23:29:43 10° 62° (ENE) 23:30:13 145.980
ESTCUBE 1 28 Sep 23:30:51 23:34:24 23° 68° (ENE) 23:37:58 437.505/2401.250
ANTELSAT 28 Sep 23:44:27 23:48:48 53° 100° (E) 23:53:13 437.575/2403.000
M-CUBED/EXP-1 PRIME 28 Sep 23:45:29 23:47:37 14° 63° (ENE) 23:49:41 437.505
DELFI C3 28 Sep 23:48:08 23:50:30 15° 267° (W) 23:52:54 145.870
JAS-2 28 Sep 23:57:54 00:01:32 14° 85° (E) 00:05:05 435.910
RS-15 29 Sep 00:01:10 00:10:23 25° 333° (NNW) 00:19:55 29.354- 29.394
PRISM 29 Sep 00:03:15 00:04:41 12° 296° (WNW) 00:06:06 437.425
TIGRISAT 29 Sep 00:04:38 00:09:04 86° 100° (E) 00:13:36 435.000
SPROUT 29 Sep 00:05:07 00:07:09 13° 65° (ENE) 00:09:11 437.525
HUMSAT D 29 Sep 00:11:15 00:14:01 18° 266° (W) 00:16:48 437.325/437.525
QB50P1 29 Sep 00:12:46 00:14:32 12° 92° (E) 00:16:18 145.935-145.965
SRMSAT 29 Sep 00:12:49 00:15:02 12° 175° (S) 00:17:15 437.500
AISAT 29 Sep 00:17:58 00:22:05 38° 71° (ENE) 00:26:12 437.250
SO-50 29 Sep 00:18:21 00:22:21 29° 50° (NE) 00:26:15 436.795
UKube-1 29 Sep 00:20:20 00:23:17 18° 66° (ENE) 00:26:14 .
POPSAT HIP 1 29 Sep 00:25:27 00:28:17 17° 94° (E) 00:31:07 437.405
AUBIESAT-1 29 Sep 00:39:34 00:43:29 47° 70° (ENE) 00:47:08 437.475
NANOSAT C BR1 29 Sep 00:40:30 00:43:58 25° 96° (E) 00:47:27 145.865
UNISAT 6 29 Sep 00:46:05 00:49:58 31° 289° (WNW) 00:53:55 437.425
DX 1 29 Sep 00:49:32 00:53:46 50° 73° (ENE) 00:58:00 434.975-435.025
BEESAT 3 29 Sep 00:50:55 00:53:55 22° 112° (ESE) 00:56:57 437.485
50 SAT 29 Sep 00:56:42 01:00:19 80° 258° (WSW) 01:03:59 437.505
VELOX 1 29 Sep 01:01:05 01:05:31 74° 256° (WSW) 01:10:00 145.980
CUBEBUG 1 29 Sep 01:02:39 01:06:58 53° 260° (W) 01:11:18 437.445
QB50P2 29 Sep 01:04:27 01:08:36 56° 100° (E) 01:12:45 145.880/145.840
POLYITAN 1 29 Sep 01:06:38 01:10:47 56° 100° (E) 01:14:57 437.675
ESTCUBE 1 29 Sep 01:07:00 01:11:00 31° 263° (W) 01:15:03 437.505/2401.250
M-CUBED/EXP-1 PRIME 29 Sep 01:17:51 01:21:51 44° 255° (WSW) 01:25:35 437.505
TISAT 1 29 Sep 01:20:37 01:23:27 18° 67° (ENE) 01:26:17 437.305
ANTELSAT 29 Sep 01:22:51 01:25:03 14° 295° (WNW) 01:27:18 437.575/2403.000
ISS 29 Sep 01:34:43 01:35:10 10° 15° (NNE) 01:35:38 145.825
Cosmos 2491 29 Sep 01:37:48 01:44:25 23° 67° (ENE) 01:50:57 435.465 / 435.565
SPROUT 29 Sep 01:38:29 01:42:38 50° 260° (W) 01:46:47 437.525
JAS-2 29 Sep 01:39:41 01:47:37 81° 103° (ESE) 01:55:02 435.910
BUGSAT 1 29 Sep 01:40:59 01:44:51 45° 100° (E) 01:48:43 437.445
DUCHIFAT 1 29 Sep 01:43:03 01:47:11 61° 285° (WNW) 01:51:19 145.980
QB50P1 29 Sep 01:46:29 01:50:33 48° 286° (WNW) 01:54:36 145.935-145.965
BEESAT 2 29 Sep 01:47:49 01:51:35 47° 116° (ESE) 01:55:25 435.950
UKube-1 29 Sep 01:55:02 01:59:02 36° 262° (W) 02:03:02 .
AISAT 29 Sep 01:55:38 01:58:39 18° 266° (W) 02:01:41 437.250
SO-50 29 Sep 01:58:51 02:02:44 28° 248° (WSW) 02:06:31 436.795
POPSAT HIP 1 29 Sep 02:00:19 02:04:08 34° 288° (WNW) 02:07:56 437.405
SRMSAT 29 Sep 02:01:11 02:03:19 12° 186° (S) 02:05:26 437.500
ITUPSAT 1 29 Sep 02:11:49 02:14:15 14° 63° (ENE) 02:16:43 437.325
NANOSAT C BR1 29 Sep 02:16:13 02:19:36 24° 291° (WNW) 02:22:58 145.865
AUBIESAT-1 29 Sep 02:16:33 02:18:03 12° 261° (W) 02:19:31 437.475
RS-15 29 Sep 02:21:28 02:29:23 19° 10° (N) 02:37:19 29.354- 29.394
SWISSCUBE 29 Sep 02:23:02 02:26:33 21° 66° (ENE) 02:30:04 437.505
BEESAT 3 29 Sep 02:28:01 02:31:24 28° 308° (NW) 02:34:50 437.485
DX 1 29 Sep 02:28:13 02:30:13 13° 268° (W) 02:32:12 434.975-435.025
BEESAT 29 Sep 02:35:30 02:39:20 25° 68° (ENE) 02:43:12 436.000
YUBILEINY 29 Sep 02:36:03 02:42:17 22° 81° (E) 02:48:30 435.215
QB50P2 29 Sep 02:42:20 02:43:54 12° 296° (WNW) 02:45:28 145.880/145.840
Oscar 19 29 Sep 02:42:34 02:47:25 40° 98° (E) 02:52:13 437.125/150
POLYITAN 1 29 Sep 02:44:32 02:46:06 12° 296° (WNW) 02:47:39 437.675
TISAT 1 29 Sep 02:55:01 02:58:50 34° 262° (W) 03:02:40 437.305
ISS 29 Sep 03:09:21 03:12:25 36° 33° (NNE) 03:15:30 145.825
BUGSAT 1 29 Sep 03:17:59 03:19:49 13° 294° (WNW) 03:21:39 437.445
JAS-2 29 Sep 03:26:08 03:31:37 21° 301° (WNW) 03:36:58 435.910
BEESAT 2 29 Sep 03:27:13 03:29:39 16° 313° (NW) 03:32:07 435.950
Cosmos 2491 29 Sep 03:33:16 03:42:05 73° 267° (W) 03:50:48 435.465 / 435.565
ITAMSAT 1 29 Sep 03:39:23 03:42:46 17° 93° (E) 03:46:08 435.822/435.867
ITUPSAT 1 29 Sep 03:46:52 03:51:33 60° 259° (WSW) 03:56:17 437.325
Gurwin Techsat 1B 29 Sep 03:49:31 03:54:52 85° 103° (ESE) 04:00:11 435.225
MOZHAYETS 4 29 Sep 03:51:25 03:55:05 24° 68° (ENE) 03:58:47
SWISSCUBE 29 Sep 03:59:38 04:04:03 38° 261° (W) 04:08:30 437.505
KKS-1 29 Sep 04:08:05 04:11:37 23° 68° (ENE) 04:15:09 437.445
BEESAT 29 Sep 04:12:45 04:16:57 31° 263° (W) 04:21:11 436.000
AIST 2 29 Sep 04:20:10 04:24:14 73° 119° (ESE) 04:28:22 435.215
Oscar 19 29 Sep 04:22:30 04:26:27 23° 294° (WNW) 04:30:22 437.125/150
YUBILEINY 29 Sep 04:29:23 04:38:09 71° 279° (W) 04:46:56 435.215
RS-15 29 Sep 04:35:24 04:46:51 40° 43° (NE) 04:58:04 29.354- 29.394
Cosmos 2504 29 Sep 04:36:49 04:43:56 51° 91° (E) 04:50:49 435.465 / 435.565
STARS 29 Sep 04:38:22 04:41:52 23° 68° (ENE) 04:45:19 437.465
ISS 29 Sep 04:46:12 04:48:45 21° 229° (SW) 04:51:17 145.825
AO-7 29 Sep 04:58:22 05:06:20 49° 101° (ESE) 05:14:16 29.400- 29.500
CUSAT 1 29 Sep 05:10:15 05:11:00 10° 55° (NE) 05:11:44 437.405
PCSat 29 Sep 05:12:26 05:17:50 85° 116° (ESE) 05:23:17 145.827
CUBESAT XI-V 29 Sep 05:14:24 05:18:10 25° 68° (ENE) 05:21:58 437.345
ITAMSAT 1 29 Sep 05:17:26 05:22:30 52° 288° (WNW) 05:27:33 435.822/435.867
MOZHAYETS 4 29 Sep 05:28:06 05:32:05 29° 264° (W) 05:36:07
Gurwin Techsat 1B 29 Sep 05:32:08 05:34:03 12° 300° (WNW) 05:35:58 435.225
AIST 1 29 Sep 05:33:16 05:37:04 29° 90° (E) 05:40:51
Cosmos 2491 29 Sep 05:34:33 05:37:13 12° 285° (WNW) 05:39:53 435.465 / 435.565
